STARLINK-11485 [DTC] (62229 NORAD) Tracking and Keplerian Element Data

This shows tracking and keplerian element data for the satellite.

Feedback or suggestion? Click here.




ElementValue
Catalog62229
NameSTARLINK-11485 [DTC]
Epoch Orbit1054
Epoch Day35.06081744
Epoch Year2025
RAAN266.2672
Inclination53.1574
Eccentricity0.000109
Argument of Perigee101.1515
Mean Anonmoly258.9625
Mean Motion15.69713004
Decay Rate-8.89E-06
L11 62229U 24231M 25035.06081744 -.00000889 00000+0 -24791-5 0 9992
L22 62229 53.1574 266.2672 0001090 101.1515 258.9625 15.69713004 10546



Live tracking and technical data element details for STARLINK-11485 [DTC] (NORAD 62229). STARLINK-11485 [DTC] can be tracked NOW for your location showing map with azimuth and elevation plus other details from your city location.







IsCatalogInMostPopularTable: catalog: 62229, numindb: 29
Update: records affected: 1



GetName: 62229 STARLINK-11485 [DTC]

Hit Count: updated at: Sun, 18 May 2025 23:26:49 GMT